STARLINK-36108 (66868 NORAD) Tracking and Keplerian Element Data

This shows tracking and keplerian element data for the satellite.

Feedback or suggestion? Click here.




ElementValue
Catalog66868
NameSTARLINK-36108
Epoch Orbit244
Epoch Day354.25003472
Epoch Year2025
RAAN76.295
Inclination43.0009
Eccentricity9.45E-05
Argument of Perigee264.4188
Mean Anonmoly260.1253
Mean Motion15.75429534
Decay Rate-0.01730857
L11 66868U 25281W 25354.25003472 -.01730857 00000+0 -12566-1 0 9997
L22 66868 43.0009 76.2950 0000945 264.4188 260.1253 15.75429534 2446



Live tracking and technical data element details for STARLINK-36108 (NORAD 66868). STARLINK-36108 can be tracked NOW for your location showing map with azimuth and elevation plus other details from your city location.







IsCatalogInMostPopularTable: catalog: 66868, numindb: 20
Update: records affected: 1



GetName: 66868 STARLINK-36108

Hit Count: updated at: Tue, 21 Apr 2026 19:41:21 GMT